星链-33563 (STARLINK-33563)

导读 | 豆包AI

STARLINK-33563是美国SpaceX公司星链(Starlink)星座的一员,于2024年12月8日发射入轨,属于低轨宽带通信卫星。星链计划旨在构建覆盖全球的天基互联网系统,这款量产卫星采用平板设计,搭载Ku/Ka波段通信载荷,配备氪工质霍尔推进器,具备自主避撞能力,服务全球宽带接入,寿命末期将主动离轨并在大气层焚毁。

基本信息
目录编号:
62284
目录名称:
STARLINK-33563
国际标识:
2024-237T
轨道中心:
EARTH
卫星名称:
星链-33563
卫星全名:
星链-33563 (STARLINK-33563)
卫星状态:
在轨 (已飞行462 天)
发射日期:
2024-12-08 UTC
国别 :
美国 (US)
星等 :
--
轨道信息
数据来源 国际轨道数据 AOE轨道数据
星历时间 2026-03-15T00:14:02+0800
14小时前
查看轨道信息
2026-03-12T09:00:00+0800
3天前
查看轨道信息
半长轴 6861.057km 6861.126km
偏心率 0.0001278 0.0001954
轨道倾角 42.998° 42.995°
近地点辐角 283.243° 297.504°
升交点赤经 188.272° 203.155°
平近点角 76.828° 316.303°
近地点 482.043km 481.648km
远地点 483.797km 484.33km
周期 94.264分钟 94.266分钟
每日圈数 15.276233 15.276002
详细信息
固有亮度:
5
最大亮度:
2.5
卫星平台:
Starlink V1.0
覆盖范围:
全球
运营商:
太空探索技术公司
运营商所在国:
美国
制造商(研发单位):
太空探索技术公司
制造商所在国:
美国
使用方式:
暂无
卫星简介
Starlink 计划是 SpaceX 推出的全球卫星互联网项目,通过发射低轨道卫星,为全球尤其是偏远地区提供高速、低延迟的互联网服务。自 2019 年起,Starlink 已部署数千颗卫星,旨在缩小全球数字鸿沟,推动互联网普及。该项目还为军事、航空等行业提供通信支持,带来广泛经济效益。
2D轨道图
3D轨道图
轨道高度分析图
轨道倾角分析图
轨道综合分析图
查看轨道综合分析图